BAW9CH EGLL-KPHX

Flight info

Callsign BAW9CH
Flight time N/A
Altitude 34000
Route CPT L9 DIDZA N14 OKTAD DCT MEDOG DCT KRAGY DCT PEMOB DCT VATRY DCT ADMUP DCT PIKIL/M085F360 NATB IRLOK/N0493F360 DCT FRAZR/N0497F380 DCT YBC DCT YSP DCT DLH DCT ONL/N0482F400 DCT HBU J128 TBC DCT MAIER BRUSR1
Aircraft A35K/H-SDE2E3GHIJ3J4J5LM1ORWXY/LB1D1

Departure

Time N/A
Airport London Heathrow Airport (EGLL)

Arrival

Time 2026-05-04 02:23
Airport Phoenix Sky Harbor International Airport (KPHX)
Time Latitude Longitude Altitude Speed Heading
2026-05-03 20:15 53.77153 -58.62437 35918 ft 421 kts 231°
2026-05-03 20:15 53.73446 -58.70077 35925 ft 420 kts 231°
2026-05-03 20:16 53.69737 -58.77699 35923 ft 419 kts 231°
2026-05-03 20:16 53.66034 -58.85285 35917 ft 419 kts 231°
2026-05-03 20:17 53.62323 -58.92861 35920 ft 419 kts 231°
2026-05-03 20:17 53.58607 -59.00428 35928 ft 419 kts 230°
2026-05-03 20:18 53.54891 -59.07969 35917 ft 419 kts 230°
2026-05-03 20:18 53.51174 -59.15490 35909 ft 418 kts 230°
2026-05-03 20:19 53.47483 -59.22938 35916 ft 418 kts 230°
2026-05-03 20:19 53.43761 -59.30424 35910 ft 418 kts 230°
2026-05-03 20:20 53.40035 -59.37896 35906 ft 418 kts 230°
2026-05-03 20:20 53.36304 -59.45358 35906 ft 418 kts 229°
2026-05-03 20:21 53.32569 -59.52803 35906 ft 418 kts 229°
2026-05-03 20:21 53.28829 -59.60234 35898 ft 418 kts 229°
2026-05-03 20:22 53.25083 -59.67657 35901 ft 418 kts 229°
2026-05-03 20:22 53.21333 -59.75065 35897 ft 418 kts 229°
2026-05-03 20:23 53.17582 -59.82456 35902 ft 417 kts 229°
2026-05-03 20:23 53.13836 -59.89812 35893 ft 416 kts 228°
2026-05-03 20:24 53.10087 -59.97152 35893 ft 416 kts 228°
2026-05-03 20:24 53.06332 -60.04481 35894 ft 416 kts 228°
2026-05-03 20:25 53.02575 -60.11795 35896 ft 416 kts 228°
2026-05-03 20:25 52.98816 -60.19095 35894 ft 416 kts 228°
2026-05-03 20:26 52.95051 -60.26381 35895 ft 416 kts 228°
2026-05-03 20:26 52.91280 -60.33658 35896 ft 416 kts 227°
2026-05-03 20:27 52.87508 -60.40913 35896 ft 416 kts 227°
2026-05-03 20:27 52.83752 -60.48118 35895 ft 416 kts 227°
2026-05-03 20:28 52.79967 -60.55360 35899 ft 416 kts 227°
2026-05-03 20:28 52.76174 -60.62595 35890 ft 417 kts 227°
2026-05-03 20:29 52.72374 -60.69821 35892 ft 417 kts 227°
2026-05-03 20:29 52.68569 -60.77036 35888 ft 417 kts 227°
2026-05-03 20:30 52.64760 -60.84238 35887 ft 417 kts 227°
2026-05-03 20:30 52.60949 -60.91426 35889 ft 417 kts 226°
2026-05-03 20:31 52.57128 -60.98609 35891 ft 417 kts 226°
2026-05-03 20:31 52.53303 -61.05778 35891 ft 417 kts 226°
2026-05-03 20:32 52.49472 -61.12939 35886 ft 417 kts 226°
2026-05-03 20:32 52.45631 -61.20096 35886 ft 417 kts 226°
2026-05-03 20:33 52.41793 -61.27229 35891 ft 417 kts 226°
2026-05-03 20:33 52.37973 -61.34308 35889 ft 417 kts 226°
2026-05-03 20:34 52.34122 -61.41424 35887 ft 418 kts 226°
2026-05-03 20:34 52.30271 -61.48521 35892 ft 417 kts 226°
2026-05-03 20:35 52.26412 -61.55610 35894 ft 418 kts 226°
2026-05-03 20:35 52.22545 -61.62696 35893 ft 418 kts 225°
2026-05-03 20:36 52.18667 -61.69782 35888 ft 419 kts 225°
2026-05-03 20:36 52.14784 -61.76856 35887 ft 419 kts 225°
2026-05-03 20:37 52.10900 -61.83912 35888 ft 419 kts 225°
2026-05-03 20:37 52.07009 -61.90962 35889 ft 419 kts 225°
2026-05-03 20:38 52.03107 -61.98012 35923 ft 420 kts 225°
2026-05-03 20:38 51.99197 -62.05054 35883 ft 420 kts 225°
2026-05-03 20:39 51.95280 -62.12090 35890 ft 420 kts 225°
2026-05-03 20:39 51.91362 -62.19110 35891 ft 420 kts 225°
2026-05-03 20:40 51.87430 -62.26132 35892 ft 421 kts 224°
2026-05-03 20:40 51.83515 -62.33105 35891 ft 422 kts 224°
2026-05-03 20:41 51.79566 -62.40120 35891 ft 422 kts 224°
2026-05-03 20:41 51.75616 -62.47116 35889 ft 421 kts 224°
2026-05-03 20:42 51.71660 -62.54105 35896 ft 422 kts 224°
2026-05-03 20:42 51.67690 -62.61097 35890 ft 423 kts 224°
2026-05-03 20:43 51.63711 -62.68085 36028 ft 423 kts 224°
2026-05-03 20:43 51.61804 -62.71698 36305 ft 426 kts 229°
2026-05-03 20:43 51.60079 -62.75605 36515 ft 429 kts 231°
2026-05-03 20:43 51.58407 -62.79595 36716 ft 432 kts 232°
2026-05-03 20:44 51.56753 -62.83638 36944 ft 434 kts 233°
2026-05-03 20:44 51.55105 -62.87710 37126 ft 436 kts 233°
2026-05-03 20:44 51.53450 -62.91804 37345 ft 438 kts 233°
2026-05-03 20:44 51.51784 -62.95912 37522 ft 440 kts 233°
2026-05-03 20:45 51.50108 -63.00029 37746 ft 441 kts 233°
2026-05-03 20:45 51.48424 -63.04152 37866 ft 444 kts 233°
2026-05-03 20:45 51.46716 -63.08313 37893 ft 448 kts 233°
2026-05-03 20:46 51.43283 -63.16657 37899 ft 448 kts 233°
2026-05-03 20:46 51.39865 -63.24939 37883 ft 449 kts 233°
2026-05-03 20:47 51.36413 -63.33272 37884 ft 449 kts 233°
2026-05-03 20:47 51.32955 -63.41594 37887 ft 449 kts 233°
2026-05-03 20:48 51.29493 -63.49899 37887 ft 449 kts 233°
2026-05-03 20:48 51.26023 -63.58196 37881 ft 449 kts 233°
2026-05-03 20:49 51.22550 -63.66479 37879 ft 449 kts 233°
2026-05-03 20:49 51.19068 -63.74751 37884 ft 449 kts 233°
2026-05-03 20:50 51.15577 -63.83018 37887 ft 450 kts 233°
2026-05-03 20:50 51.12105 -63.91213 37889 ft 450 kts 233°
2026-05-03 20:51 51.08601 -63.99457 37889 ft 450 kts 233°
2026-05-03 20:51 51.05091 -64.07692 37894 ft 450 kts 232°
2026-05-03 20:52 51.01572 -64.15921 37885 ft 451 kts 232°
2026-05-03 20:52 50.98043 -64.24147 37886 ft 451 kts 232°
2026-05-03 20:53 50.94510 -64.32360 37880 ft 451 kts 232°
2026-05-03 20:53 50.90968 -64.40563 37881 ft 451 kts 232°
2026-05-03 20:54 50.87417 -64.48764 37884 ft 451 kts 232°
2026-05-03 20:54 50.82076 -64.61051 37880 ft 452 kts 232°
2026-05-03 20:55 50.78506 -64.69230 37873 ft 452 kts 232°
2026-05-03 20:55 50.74926 -64.77405 37866 ft 452 kts 232°
2026-05-03 20:56 50.71346 -64.85559 37867 ft 452 kts 232°
2026-05-03 20:56 50.67758 -64.93703 37857 ft 452 kts 232°
2026-05-03 20:57 50.64162 -65.01839 37859 ft 452 kts 232°
2026-05-03 20:57 50.60557 -65.09970 37842 ft 453 kts 232°
2026-05-03 20:58 50.56946 -65.18091 37845 ft 453 kts 232°
2026-05-03 20:58 50.53352 -65.26148 37831 ft 453 kts 232°
2026-05-03 20:59 50.49722 -65.34262 37829 ft 454 kts 232°
2026-05-03 20:59 50.46083 -65.42370 37831 ft 454 kts 232°
2026-05-03 21:00 50.43648 -65.47781 37832 ft 454 kts 232°
2026-05-03 21:00 50.38790 -65.58544 37840 ft 454 kts 232°
2026-05-03 21:01 50.35135 -65.66612 37831 ft 455 kts 232°
2026-05-03 21:01 50.31469 -65.74682 37837 ft 455 kts 232°
2026-05-03 21:02 50.27795 -65.82744 37835 ft 455 kts 231°
2026-05-03 21:02 50.24117 -65.90789 37829 ft 455 kts 231°
2026-05-03 21:03 50.20431 -65.98827 37816 ft 456 kts 231°
2026-05-03 21:03 50.16734 -66.06866 37827 ft 456 kts 231°
2026-05-03 21:04 50.13031 -66.14892 37811 ft 456 kts 231°
2026-05-03 21:04 50.09347 -66.22853 37833 ft 456 kts 231°
2026-05-03 21:05 50.05633 -66.30855 37817 ft 456 kts 231°
2026-05-03 21:05 50.01906 -66.38860 37833 ft 457 kts 231°
2026-05-03 21:06 49.98172 -66.46856 37823 ft 457 kts 231°
2026-05-03 21:06 49.94430 -66.54844 37836 ft 457 kts 231°
2026-05-03 21:07 49.90684 -66.62819 37825 ft 457 kts 231°
2026-05-03 21:07 49.86928 -66.70789 37850 ft 458 kts 231°
2026-05-03 21:08 49.83158 -66.78765 37825 ft 459 kts 231°
2026-05-03 21:08 49.80017 -66.85394 37820 ft 459 kts 231°
2026-05-03 21:09 49.75617 -66.94651 37815 ft 459 kts 231°
2026-05-03 21:09 49.71826 -67.02602 37817 ft 460 kts 231°
2026-05-03 21:10 49.68023 -67.10550 37815 ft 460 kts 231°
2026-05-03 21:10 49.64829 -67.17208 37815 ft 460 kts 231°
2026-05-03 21:11 49.61038 -67.25090 37807 ft 461 kts 231°
2026-05-03 21:11 49.57214 -67.33017 37806 ft 461 kts 231°
2026-05-03 21:12 49.53384 -67.40931 37798 ft 461 kts 231°
2026-05-03 21:12 49.49544 -67.48841 37795 ft 461 kts 230°
2026-05-03 21:13 49.45695 -67.56746 37805 ft 462 kts 231°
2026-05-03 21:13 49.41837 -67.64650 37793 ft 463 kts 231°
2026-05-03 21:14 49.37969 -67.72549 37794 ft 463 kts 231°
2026-05-03 21:14 49.34092 -67.80443 37789 ft 464 kts 231°
2026-05-03 21:15 49.30207 -67.88331 37789 ft 464 kts 230°
2026-05-03 21:15 49.26313 -67.96213 37788 ft 464 kts 230°
2026-05-03 21:16 49.22416 -68.04081 37793 ft 464 kts 230°
2026-05-03 21:16 49.18515 -68.11946 37785 ft 465 kts 231°
2026-05-03 21:17 49.15364 -68.20610 37786 ft 471 kts 246°
2026-05-03 21:17 49.14026 -68.30445 37807 ft 480 kts 264°
2026-05-03 21:18 49.14336 -68.40685 37786 ft 485 kts 271°
2026-05-03 21:18 49.14948 -68.50877 37786 ft 485 kts 271°
2026-05-03 21:19 49.15562 -68.61131 37792 ft 485 kts 271°
2026-05-03 21:19 49.16128 -68.71402 37781 ft 485 kts 270°
2026-05-03 21:20 49.16666 -68.81670 37792 ft 485 kts 270°
2026-05-03 21:20 49.17191 -68.91944 37784 ft 485 kts 270°
2026-05-03 21:21 49.17709 -69.02219 37779 ft 485 kts 270°
2026-05-03 21:21 49.18219 -69.12492 37781 ft 485 kts 270°
2026-05-03 21:22 49.18718 -69.22772 37795 ft 485 kts 270°
2026-05-03 21:22 49.19210 -69.33054 37782 ft 485 kts 270°
2026-05-03 21:23 49.19692 -69.43346 37781 ft 485 kts 270°
2026-05-03 21:23 49.20167 -69.53647 37781 ft 485 kts 270°
2026-05-03 21:24 49.20629 -69.63874 37781 ft 485 kts 270°
2026-05-03 21:24 49.21088 -69.74245 37781 ft 486 kts 270°
2026-05-03 21:25 49.21532 -69.84498 37783 ft 486 kts 270°
2026-05-03 21:25 49.21971 -69.94818 37789 ft 486 kts 270°
2026-05-03 21:26 49.22400 -70.05141 37785 ft 486 kts 270°
2026-05-03 21:26 49.22819 -70.15471 37791 ft 486 kts 270°
2026-05-03 21:27 49.23229 -70.25805 37786 ft 487 kts 270°
2026-05-03 21:27 49.23631 -70.36138 37792 ft 487 kts 270°
2026-05-03 21:28 49.24024 -70.46486 37787 ft 487 kts 270°
2026-05-03 21:28 49.24407 -70.56834 37796 ft 487 kts 270°
2026-05-03 21:29 49.24780 -70.67179 37803 ft 487 kts 270°
2026-05-03 21:29 49.25145 -70.77523 37802 ft 486 kts 270°
2026-05-03 21:30 49.25500 -70.87858 37810 ft 486 kts 270°
2026-05-03 21:30 49.25846 -70.98185 37804 ft 486 kts 269°
2026-05-03 21:31 49.26182 -71.08523 37810 ft 486 kts 269°
2026-05-03 21:31 49.26509 -71.18859 37811 ft 486 kts 269°
2026-05-03 21:32 49.26827 -71.29193 37815 ft 486 kts 269°
2026-05-03 21:32 49.27134 -71.39462 37810 ft 486 kts 269°
2026-05-03 21:33 49.27434 -71.49803 37816 ft 486 kts 269°
2026-05-03 21:33 49.27724 -71.60136 37812 ft 486 kts 269°
2026-05-03 21:34 49.28005 -71.70472 37812 ft 486 kts 269°
2026-05-03 21:34 49.28276 -71.80806 37819 ft 486 kts 269°
2026-05-03 21:35 49.28539 -71.91150 37822 ft 486 kts 269°
2026-05-03 21:35 49.28792 -72.01492 37819 ft 487 kts 269°
2026-05-03 21:36 49.29036 -72.11851 37825 ft 487 kts 269°
2026-05-03 21:36 49.29272 -72.22218 37825 ft 487 kts 269°
2026-05-03 21:37 49.29498 -72.32584 37822 ft 487 kts 269°
2026-05-03 21:37 49.29715 -72.42941 37830 ft 487 kts 269°
2026-05-03 21:38 49.29921 -72.53245 37822 ft 487 kts 269°
2026-05-03 21:38 49.30120 -72.63612 37825 ft 487 kts 269°
2026-05-03 21:39 49.30309 -72.73978 37829 ft 487 kts 269°
2026-05-03 21:39 49.30489 -72.84354 37828 ft 487 kts 269°
2026-05-03 21:40 49.30659 -72.94729 37828 ft 487 kts 269°
2026-05-03 21:40 49.30820 -73.05113 37825 ft 488 kts 269°
2026-05-03 21:41 49.30973 -73.15499 37826 ft 488 kts 269°
2026-05-03 21:41 49.31116 -73.25883 37825 ft 487 kts 269°
2026-05-03 21:42 49.31249 -73.36271 37827 ft 487 kts 269°
2026-05-03 21:42 49.31373 -73.46650 37817 ft 487 kts 269°
2026-05-03 21:43 49.31488 -73.57021 37816 ft 487 kts 269°
2026-05-03 21:43 49.31594 -73.67397 37817 ft 487 kts 269°
2026-05-03 21:44 49.31689 -73.77700 37818 ft 487 kts 269°
2026-05-03 21:44 49.31775 -73.88075 37811 ft 487 kts 269°
2026-05-03 21:45 49.31853 -73.98461 37804 ft 487 kts 269°
2026-05-03 21:45 49.31922 -74.08837 37799 ft 487 kts 269°
2026-05-03 21:46 49.31981 -74.19219 37797 ft 487 kts 269°
2026-05-03 21:46 49.32031 -74.29590 37796 ft 486 kts 269°
2026-05-03 21:47 49.32072 -74.39939 37776 ft 485 kts 269°
2026-05-03 21:47 49.32103 -74.50287 37775 ft 485 kts 269°
2026-05-03 21:48 49.32125 -74.60627 37781 ft 485 kts 269°
2026-05-03 21:48 49.32137 -74.70906 37790 ft 485 kts 268°
2026-05-03 21:49 49.32140 -74.81251 37776 ft 486 kts 269°
2026-05-03 21:49 49.32135 -74.91596 37788 ft 486 kts 269°
2026-05-03 21:50 49.32120 -75.01953 37776 ft 486 kts 268°
2026-05-03 21:50 49.32096 -75.12303 37774 ft 486 kts 268°
2026-05-03 21:51 49.32062 -75.22648 37764 ft 485 kts 269°
2026-05-03 21:51 49.32020 -75.32992 37776 ft 485 kts 268°
2026-05-03 21:52 49.31968 -75.43334 37774 ft 485 kts 268°
2026-05-03 21:52 49.31907 -75.53670 37776 ft 485 kts 268°
2026-05-03 21:53 49.31836 -75.64005 37778 ft 485 kts 268°
2026-05-03 21:53 49.31757 -75.74335 37756 ft 484 kts 268°
2026-05-03 21:54 49.31669 -75.84647 37762 ft 484 kts 268°
2026-05-03 21:54 49.31572 -75.94885 37750 ft 483 kts 268°
2026-05-03 21:55 49.31465 -76.05191 37748 ft 483 kts 268°
2026-05-03 21:55 49.31349 -76.15492 37749 ft 483 kts 268°
2026-05-03 21:56 49.31224 -76.25787 37750 ft 484 kts 268°
2026-05-03 21:56 49.31090 -76.36094 37759 ft 483 kts 268°
2026-05-03 21:57 49.30947 -76.46391 37761 ft 484 kts 268°
2026-05-03 21:57 49.30794 -76.56691 37745 ft 484 kts 268°
2026-05-03 21:58 49.30633 -76.66992 37747 ft 484 kts 268°
2026-05-03 21:58 49.30462 -76.77299 37750 ft 484 kts 268°
2026-05-03 21:59 49.30283 -76.87532 37750 ft 484 kts 268°
2026-05-03 21:59 49.30094 -76.97838 37744 ft 484 kts 268°
2026-05-03 22:00 49.29896 -77.08134 37747 ft 483 kts 268°
2026-05-03 22:00 49.29689 -77.18420 37745 ft 483 kts 268°
2026-05-03 22:01 49.29473 -77.28700 37742 ft 483 kts 268°
2026-05-03 22:01 49.29247 -77.38985 37739 ft 483 kts 268°
2026-05-03 22:02 49.29013 -77.49261 37736 ft 483 kts 268°
2026-05-03 22:02 49.28770 -77.59516 37740 ft 481 kts 268°
2026-05-03 22:03 49.28518 -77.69747 37739 ft 480 kts 268°
2026-05-03 22:03 49.28258 -77.79964 37737 ft 480 kts 267°
2026-05-03 22:04 49.27989 -77.90182 37736 ft 480 kts 267°
2026-05-03 22:04 49.27713 -78.00331 37734 ft 480 kts 267°
2026-05-03 22:05 49.27426 -78.10535 37728 ft 479 kts 267°
2026-05-03 22:05 49.27131 -78.20725 37728 ft 479 kts 267°
2026-05-03 22:06 49.26878 -78.29200 37726 ft 479 kts 267°
2026-05-03 22:06 49.26566 -78.39393 37728 ft 479 kts 267°
2026-05-03 22:07 49.26245 -78.49580 37713 ft 479 kts 267°
2026-05-03 22:07 49.25915 -78.59762 37710 ft 479 kts 267°
2026-05-03 22:08 49.25577 -78.69936 37710 ft 479 kts 267°
2026-05-03 22:08 49.25229 -78.80113 37708 ft 479 kts 266°
2026-05-03 22:09 49.24873 -78.90280 37705 ft 479 kts 266°
2026-05-03 22:10 49.24321 -79.05562 37704 ft 479 kts 266°
2026-05-03 22:10 49.23942 -79.15739 37692 ft 479 kts 266°
2026-05-03 22:11 49.23554 -79.25915 37692 ft 479 kts 266°
2026-05-03 22:11 49.23158 -79.36076 37685 ft 478 kts 266°
2026-05-03 22:12 49.22755 -79.46173 37683 ft 479 kts 266°
2026-05-03 22:12 49.22341 -79.56335 37674 ft 479 kts 266°
2026-05-03 22:13 49.21918 -79.66497 37671 ft 479 kts 266°
2026-05-03 22:13 49.21486 -79.76651 37667 ft 479 kts 266°
2026-05-03 22:14 49.21045 -79.86805 37656 ft 479 kts 266°
2026-05-03 22:14 49.20595 -79.96958 37656 ft 479 kts 266°
2026-05-03 22:15 49.20136 -80.07117 37648 ft 479 kts 266°
2026-05-03 22:15 49.19668 -80.17272 37647 ft 479 kts 266°
2026-05-03 22:16 49.19191 -80.27421 37649 ft 479 kts 266°
2026-05-03 22:16 49.18706 -80.37562 37647 ft 478 kts 266°
2026-05-03 22:17 49.18212 -80.47705 37647 ft 478 kts 266°
2026-05-03 22:17 49.17709 -80.57838 37647 ft 478 kts 265°
2026-05-03 22:18 49.17201 -80.67902 37647 ft 478 kts 265°
2026-05-03 22:18 49.16680 -80.78031 37647 ft 478 kts 265°
2026-05-03 22:19 49.16151 -80.88157 37647 ft 478 kts 265°
2026-05-03 22:19 49.15614 -80.98268 37654 ft 477 kts 265°
2026-05-03 22:20 49.15068 -81.08366 37652 ft 477 kts 265°
2026-05-03 22:20 49.14514 -81.18458 37655 ft 477 kts 265°
2026-05-03 22:21 49.13951 -81.28545 37658 ft 476 kts 265°
2026-05-03 22:21 49.13380 -81.38622 37655 ft 476 kts 265°
2026-05-03 22:22 49.12800 -81.48692 37655 ft 476 kts 265°
2026-05-03 22:22 49.12211 -81.58764 37657 ft 476 kts 265°
2026-05-03 22:23 49.11614 -81.68831 37651 ft 477 kts 265°
2026-05-03 22:23 49.11007 -81.78908 37650 ft 477 kts 265°
2026-05-03 22:24 49.10392 -81.88972 37643 ft 477 kts 265°
2026-05-03 22:24 49.09768 -81.99044 37644 ft 477 kts 265°
2026-05-03 22:25 49.09135 -82.09113 37635 ft 477 kts 265°
2026-05-03 22:25 49.08498 -82.19102 37637 ft 476 kts 265°
2026-05-03 22:26 49.07848 -82.29151 37642 ft 476 kts 265°
2026-05-03 22:26 49.07190 -82.39203 37639 ft 476 kts 265°
2026-05-03 22:27 49.06522 -82.49254 37628 ft 476 kts 264°
2026-05-03 22:27 49.05847 -82.59291 37634 ft 475 kts 265°
2026-05-03 22:28 49.05164 -82.69306 37628 ft 475 kts 265°
2026-05-03 22:28 49.04473 -82.79304 37639 ft 475 kts 264°
2026-05-03 22:29 49.03773 -82.89312 37645 ft 475 kts 264°
2026-05-03 22:29 49.03066 -82.99305 37641 ft 475 kts 264°
2026-05-03 22:30 49.02349 -83.09303 37640 ft 474 kts 264°
2026-05-03 22:30 49.01624 -83.19289 37642 ft 474 kts 264°
2026-05-03 22:31 49.00895 -83.29210 37645 ft 474 kts 264°
2026-05-03 22:31 49.00147 -83.39260 37642 ft 475 kts 264°
2026-05-03 22:32 48.99401 -83.49172 37642 ft 474 kts 264°
2026-05-03 22:32 48.98642 -83.59140 37645 ft 474 kts 264°
2026-05-03 22:33 48.97875 -83.69107 37649 ft 474 kts 264°
2026-05-03 22:33 48.97099 -83.79069 37649 ft 474 kts 264°
2026-05-03 22:34 48.96313 -83.89028 37645 ft 474 kts 264°
2026-05-03 22:34 48.95520 -83.98982 37644 ft 474 kts 264°
2026-05-03 22:35 48.94718 -84.08945 37645 ft 474 kts 264°
2026-05-03 22:35 48.93908 -84.18897 37646 ft 474 kts 264°
2026-05-03 22:36 48.93088 -84.28845 37647 ft 474 kts 264°
2026-05-03 22:36 48.92263 -84.38761 37628 ft 472 kts 264°
2026-05-03 22:37 48.91433 -84.48636 37636 ft 471 kts 264°
2026-05-03 22:37 48.90593 -84.58514 37636 ft 471 kts 264°
2026-05-03 22:38 48.89745 -84.68391 37628 ft 471 kts 264°
2026-05-03 22:38 48.88895 -84.78191 37631 ft 471 kts 264°
2026-05-03 22:39 48.88026 -84.88104 37630 ft 470 kts 264°
2026-05-03 22:39 48.87161 -84.97871 37631 ft 470 kts 264°
2026-05-03 22:40 48.86283 -85.07699 37618 ft 470 kts 264°
2026-05-03 22:40 48.85396 -85.17529 37623 ft 470 kts 264°
2026-05-03 22:41 48.84500 -85.27356 37628 ft 470 kts 264°
2026-05-03 22:41 48.83597 -85.37172 37619 ft 470 kts 264°
2026-05-03 22:42 48.82685 -85.46990 37623 ft 470 kts 264°
2026-05-03 22:42 48.81763 -85.56811 37624 ft 470 kts 263°
2026-05-03 22:43 48.80834 -85.66618 37625 ft 470 kts 264°
2026-05-03 22:43 48.79895 -85.76445 37630 ft 471 kts 264°
2026-05-03 22:44 48.78952 -85.86224 37646 ft 472 kts 264°
2026-05-03 22:44 48.77995 -85.96060 37640 ft 472 kts 264°
2026-05-03 22:45 48.77029 -86.05900 37643 ft 472 kts 264°
2026-05-03 22:45 48.76054 -86.15733 37654 ft 472 kts 264°
2026-05-03 22:46 48.75071 -86.25571 37625 ft 472 kts 264°
2026-05-03 22:46 48.73508 -86.35246 37627 ft 477 kts 251°
2026-05-03 22:47 48.70947 -86.44534 37627 ft 478 kts 249°
2026-05-03 22:47 48.68213 -86.53722 37620 ft 479 kts 249°
2026-05-03 22:48 48.65463 -86.62878 37644 ft 478 kts 249°
2026-05-03 22:48 48.62727 -86.72025 37649 ft 477 kts 249°
2026-05-03 22:49 48.59995 -86.81169 37653 ft 477 kts 249°
2026-05-03 22:49 48.57276 -86.90246 37660 ft 477 kts 249°
2026-05-03 22:50 48.54532 -86.99365 37649 ft 477 kts 249°
2026-05-03 22:50 48.51779 -87.08480 37651 ft 477 kts 249°
2026-05-03 22:51 48.49021 -87.17579 37653 ft 477 kts 249°
2026-05-03 22:51 48.46255 -87.26672 37648 ft 477 kts 249°
2026-05-03 22:52 48.43482 -87.35754 37646 ft 477 kts 249°
2026-05-03 22:52 48.40701 -87.44825 37634 ft 477 kts 249°
2026-05-03 22:53 48.37920 -87.53863 37644 ft 476 kts 249°
2026-05-03 22:53 48.35136 -87.62883 37641 ft 475 kts 249°
2026-05-03 22:54 48.32344 -87.71893 37636 ft 476 kts 249°
2026-05-03 22:54 48.29545 -87.80894 37635 ft 475 kts 249°
2026-05-03 22:55 48.26757 -87.89827 37625 ft 475 kts 249°
2026-05-03 22:55 48.23950 -87.98787 37629 ft 474 kts 249°
2026-05-03 22:56 48.21139 -88.07730 37629 ft 474 kts 249°
2026-05-03 22:56 48.18320 -88.16667 37625 ft 474 kts 249°
2026-05-03 22:57 48.15497 -88.25585 37630 ft 474 kts 249°
2026-05-03 22:57 48.12667 -88.34494 37632 ft 473 kts 249°
2026-05-03 22:58 48.09836 -88.43372 37631 ft 472 kts 249°
2026-05-03 22:58 48.07001 -88.52233 37631 ft 472 kts 249°
2026-05-03 22:59 48.04159 -88.61086 37634 ft 472 kts 249°
2026-05-03 22:59 48.01309 -88.69930 37633 ft 472 kts 249°
2026-05-03 23:00 47.98452 -88.78764 37632 ft 472 kts 249°
2026-05-03 23:00 47.95594 -88.87572 37642 ft 471 kts 249°
2026-05-03 23:01 47.93214 -88.94886 37642 ft 472 kts 249°
2026-05-03 23:01 47.90344 -89.03678 37636 ft 472 kts 249°
2026-05-03 23:02 47.87466 -89.12463 37640 ft 472 kts 249°
2026-05-03 23:02 47.84582 -89.21236 37640 ft 471 kts 249°
2026-05-03 23:03 47.81695 -89.29984 37645 ft 471 kts 249°
2026-05-03 23:03 47.78822 -89.38664 37648 ft 471 kts 249°
2026-05-03 23:04 47.75924 -89.47393 37650 ft 471 kts 249°
2026-05-03 23:04 47.73015 -89.56122 37644 ft 471 kts 249°
2026-05-03 23:05 47.70101 -89.64836 37649 ft 471 kts 248°
2026-05-03 23:05 47.67178 -89.73548 37653 ft 471 kts 248°
2026-05-03 23:06 47.64249 -89.82247 37649 ft 471 kts 248°
2026-05-03 23:06 47.61313 -89.90941 37663 ft 471 kts 248°
2026-05-03 23:07 47.58371 -89.99620 37647 ft 472 kts 248°
2026-05-03 23:07 47.55444 -90.08225 37656 ft 470 kts 248°
2026-05-03 23:08 47.52500 -90.16855 37661 ft 470 kts 248°
2026-05-03 23:08 47.49550 -90.25475 37661 ft 470 kts 248°
2026-05-03 23:09 47.46595 -90.34081 37666 ft 470 kts 248°
2026-05-03 23:09 47.43629 -90.42686 37651 ft 470 kts 248°
2026-05-03 23:10 47.40659 -90.51278 37667 ft 469 kts 248°
2026-05-03 23:10 47.37685 -90.59851 37663 ft 469 kts 248°
2026-05-03 23:11 47.34705 -90.68415 37669 ft 470 kts 248°
2026-05-03 23:11 47.31714 -90.76981 37672 ft 470 kts 248°
2026-05-03 23:12 47.28718 -90.85534 37665 ft 470 kts 248°
2026-05-03 23:12 47.25714 -90.94080 37672 ft 470 kts 248°
2026-05-03 23:13 47.22707 -91.02610 37675 ft 470 kts 248°
2026-05-03 23:13 47.19712 -91.11078 37675 ft 470 kts 247°
2026-05-03 23:14 47.16692 -91.19587 37661 ft 469 kts 247°
2026-05-03 23:14 47.13666 -91.28088 37674 ft 469 kts 247°
2026-05-03 23:15 47.10636 -91.36574 37671 ft 469 kts 247°
2026-05-03 23:15 47.07600 -91.45047 37681 ft 469 kts 247°
2026-05-03 23:16 47.04558 -91.53511 37685 ft 469 kts 247°
2026-05-03 23:16 47.01509 -91.61967 37679 ft 469 kts 247°
2026-05-03 23:17 46.98456 -91.70405 37680 ft 468 kts 247°
2026-05-03 23:17 46.95402 -91.78823 37668 ft 468 kts 247°
2026-05-03 23:18 46.92338 -91.87241 37686 ft 469 kts 247°
2026-05-03 23:18 46.89288 -91.95594 37709 ft 469 kts 247°
2026-05-03 23:19 46.86214 -92.03985 37697 ft 469 kts 247°
2026-05-03 23:19 46.83132 -92.12372 37710 ft 468 kts 247°
2026-05-03 23:20 46.79830 -92.20595 37711 ft 474 kts 239°
2026-05-03 23:20 46.75652 -92.28094 37711 ft 477 kts 235°
2026-05-03 23:21 46.71292 -92.35409 37693 ft 478 kts 234°
2026-05-03 23:21 46.66904 -92.42692 37691 ft 478 kts 234°
2026-05-03 23:22 46.60344 -92.53614 37694 ft 478 kts 234°
2026-05-03 23:22 46.55975 -92.60891 37700 ft 478 kts 234°
2026-05-03 23:23 46.51634 -92.68106 37724 ft 478 kts 234°
2026-05-03 23:23 46.47258 -92.75354 37721 ft 478 kts 234°
2026-05-03 23:24 46.42878 -92.82591 37708 ft 477 kts 234°
2026-05-03 23:24 46.38489 -92.89822 37729 ft 477 kts 234°
2026-05-03 23:25 46.34104 -92.97028 37731 ft 477 kts 234°
2026-05-03 23:25 46.29711 -93.04229 37730 ft 477 kts 234°
2026-05-03 23:26 46.25316 -93.11412 37731 ft 477 kts 234°
2026-05-03 23:26 46.20919 -93.18581 37738 ft 477 kts 234°
2026-05-03 23:27 46.16518 -93.25739 37755 ft 477 kts 234°
2026-05-03 23:27 46.12108 -93.32891 37761 ft 477 kts 234°
2026-05-03 23:28 46.07731 -93.39972 37761 ft 476 kts 233°
2026-05-03 23:28 46.03321 -93.47087 37762 ft 476 kts 233°
2026-05-03 23:29 45.98906 -93.54192 37764 ft 476 kts 233°
2026-05-03 23:29 45.94487 -93.61286 37757 ft 476 kts 233°
2026-05-03 23:30 45.90065 -93.68366 37750 ft 476 kts 233°
2026-05-03 23:30 45.85639 -93.75433 37752 ft 475 kts 233°
2026-05-03 23:31 45.81215 -93.82479 37749 ft 475 kts 233°
2026-05-03 23:31 45.76785 -93.89517 37751 ft 475 kts 233°
2026-05-03 23:32 45.72355 -93.96537 37762 ft 476 kts 233°
2026-05-03 23:32 45.67947 -94.03505 37753 ft 475 kts 233°
2026-05-03 23:33 45.63511 -94.10497 37759 ft 474 kts 233°
2026-05-03 23:33 45.59078 -94.17469 37759 ft 474 kts 233°
2026-05-03 23:34 45.54638 -94.24434 37763 ft 474 kts 233°
2026-05-03 23:34 45.50194 -94.31388 37770 ft 475 kts 233°
2026-05-03 23:35 45.45748 -94.38325 37774 ft 473 kts 233°
2026-05-03 23:35 45.41310 -94.45234 37779 ft 472 kts 233°
2026-05-03 23:36 45.36870 -94.52129 37785 ft 473 kts 233°
2026-05-03 23:36 45.32425 -94.59015 37782 ft 473 kts 232°
2026-05-03 23:37 45.27974 -94.65892 37766 ft 472 kts 232°
2026-05-03 23:37 45.23528 -94.72744 37778 ft 471 kts 232°
2026-05-03 23:38 45.19087 -94.79572 37780 ft 471 kts 232°
2026-05-03 23:38 45.14668 -94.86350 37780 ft 471 kts 232°
2026-05-03 23:39 45.10219 -94.93158 37779 ft 471 kts 232°
2026-05-03 23:39 45.05764 -94.99955 37765 ft 471 kts 232°
2026-05-03 23:40 45.01307 -95.06741 37777 ft 471 kts 232°
2026-05-03 23:40 44.96847 -95.13513 37792 ft 470 kts 232°
2026-05-03 23:41 44.92388 -95.20269 37786 ft 471 kts 232°
2026-05-03 23:41 44.87922 -95.27018 37786 ft 471 kts 232°
2026-05-03 23:42 44.83450 -95.33759 37776 ft 471 kts 232°
2026-05-03 23:42 44.78973 -95.40492 37803 ft 471 kts 232°
2026-05-03 23:43 44.74491 -95.47216 37802 ft 471 kts 232°
2026-05-03 23:43 44.70005 -95.53929 37803 ft 471 kts 232°
2026-05-03 23:44 44.65510 -95.60639 37801 ft 471 kts 232°
2026-05-03 23:44 44.61047 -95.67287 37796 ft 471 kts 232°
2026-05-03 23:45 44.56548 -95.73972 37797 ft 471 kts 231°
2026-05-03 23:45 44.52043 -95.80648 37803 ft 471 kts 231°
2026-05-03 23:46 44.47538 -95.87309 37803 ft 471 kts 231°
2026-05-03 23:46 44.43024 -95.93968 37801 ft 472 kts 232°
2026-05-03 23:47 44.38495 -96.00634 37800 ft 473 kts 231°
2026-05-03 23:47 44.33950 -96.07305 37801 ft 474 kts 231°
2026-05-03 23:48 44.29404 -96.13963 37813 ft 474 kts 231°
2026-05-03 23:48 44.24848 -96.20619 37811 ft 474 kts 231°
2026-05-03 23:49 44.20276 -96.27283 37825 ft 476 kts 231°
2026-05-03 23:49 44.15688 -96.33955 37824 ft 477 kts 231°
2026-05-03 23:50 44.11873 -96.39489 37831 ft 477 kts 231°
2026-05-03 23:50 44.06502 -96.47261 37811 ft 477 kts 231°
2026-05-03 23:51 44.01898 -96.53908 37824 ft 478 kts 231°
2026-05-03 23:51 43.97283 -96.60554 37832 ft 478 kts 231°
2026-05-03 23:52 43.92697 -96.67142 37830 ft 478 kts 231°
2026-05-03 23:52 43.88074 -96.73767 37833 ft 478 kts 231°
2026-05-03 23:53 43.83448 -96.80381 37831 ft 478 kts 231°
2026-05-03 23:53 43.78821 -96.86982 37824 ft 477 kts 230°
2026-05-03 23:54 43.74195 -96.93564 37836 ft 477 kts 230°
2026-05-03 23:54 43.69567 -97.00136 37830 ft 477 kts 230°
2026-05-03 23:55 43.64935 -97.06696 37822 ft 477 kts 230°
2026-05-03 23:55 43.60302 -97.13244 37830 ft 477 kts 230°
2026-05-03 23:56 43.55667 -97.19776 37832 ft 476 kts 230°
2026-05-03 23:56 43.51037 -97.26288 37838 ft 475 kts 230°
2026-05-03 23:57 43.46406 -97.32787 37838 ft 475 kts 230°
2026-05-03 23:57 43.41804 -97.39230 37847 ft 475 kts 230°
2026-05-03 23:58 43.37164 -97.45711 37843 ft 475 kts 230°
2026-05-03 23:58 43.32529 -97.52168 37851 ft 474 kts 230°
2026-05-03 23:59 43.27894 -97.58612 37847 ft 474 kts 230°
2026-05-03 23:59 43.24041 -97.63959 37852 ft 474 kts 230°
2026-05-04 00:00 43.19401 -97.70381 37854 ft 474 kts 230°
2026-05-04 00:00 43.14754 -97.76798 37852 ft 473 kts 230°
2026-05-04 00:01 43.10123 -97.83179 37857 ft 472 kts 230°
2026-05-04 00:01 43.05499 -97.89539 37858 ft 471 kts 230°
2026-05-04 00:02 43.00871 -97.95889 37858 ft 471 kts 230°
2026-05-04 00:02 42.96241 -98.02227 37858 ft 471 kts 230°
2026-05-04 00:03 42.91614 -98.08543 37857 ft 469 kts 230°
2026-05-04 00:03 42.87010 -98.14815 37856 ft 467 kts 230°
2026-05-04 00:04 42.82403 -98.21079 37856 ft 468 kts 230°
2026-05-04 00:04 42.77826 -98.27291 37856 ft 468 kts 230°
2026-05-04 00:05 42.73213 -98.33535 37856 ft 468 kts 230°
2026-05-04 00:05 42.68601 -98.39759 37856 ft 465 kts 231°
2026-05-04 00:06 42.64030 -98.45915 37875 ft 462 kts 231°
2026-05-04 00:06 42.59469 -98.52052 37878 ft 462 kts 230°
2026-05-04 00:07 42.54900 -98.58186 37884 ft 462 kts 230°
2026-05-04 00:07 42.50328 -98.64307 37885 ft 462 kts 230°
2026-05-04 00:08 42.48123 -98.67466 38021 ft 459 kts 236°
2026-05-04 00:08 42.46240 -98.70919 38380 ft 453 kts 243°
2026-05-04 00:08 42.44595 -98.74531 38689 ft 450 kts 244°
2026-05-04 00:08 42.43017 -98.78181 38943 ft 449 kts 245°
2026-05-04 00:09 42.41473 -98.81853 39147 ft 449 kts 245°
2026-05-04 00:09 42.39939 -98.85540 39350 ft 450 kts 245°
2026-05-04 00:09 42.38408 -98.89226 39529 ft 450 kts 245°
2026-05-04 00:09 42.36867 -98.92920 39740 ft 451 kts 245°
2026-05-04 00:10 42.35321 -98.96610 39851 ft 453 kts 245°
2026-05-04 00:10 42.33763 -99.00312 39872 ft 453 kts 245°
2026-05-04 00:10 42.30660 -99.07647 39867 ft 453 kts 245°
2026-05-04 00:11 42.27528 -99.15027 39864 ft 453 kts 245°
2026-05-04 00:11 42.24394 -99.22394 39865 ft 453 kts 245°
2026-05-04 00:12 42.21260 -99.29744 39858 ft 450 kts 245°
2026-05-04 00:12 42.18137 -99.37053 39863 ft 450 kts 245°
2026-05-04 00:13 42.15009 -99.44358 39868 ft 450 kts 245°
2026-05-04 00:13 42.11876 -99.51654 39864 ft 450 kts 245°
2026-05-04 00:14 42.08741 -99.58936 39865 ft 450 kts 245°
2026-05-04 00:14 42.05601 -99.66214 39864 ft 450 kts 245°
2026-05-04 00:15 42.02455 -99.73486 39865 ft 450 kts 245°
2026-05-04 00:15 41.99305 -99.80751 39865 ft 450 kts 245°
2026-05-04 00:16 41.96146 -99.88016 39872 ft 450 kts 245°
2026-05-04 00:16 41.93012 -99.95206 39862 ft 449 kts 245°
2026-05-04 00:17 41.89832 -100.02487 39875 ft 449 kts 245°
2026-05-04 00:17 41.86689 -100.09665 39871 ft 449 kts 245°
2026-05-04 00:18 41.83520 -100.16883 39872 ft 449 kts 245°
2026-05-04 00:18 41.80347 -100.24096 39863 ft 449 kts 245°
2026-05-04 00:19 41.77171 -100.31297 39879 ft 449 kts 245°
2026-05-04 00:19 41.73991 -100.38491 39884 ft 449 kts 245°
2026-05-04 00:20 41.70802 -100.45685 39874 ft 449 kts 245°
2026-05-04 00:20 41.67613 -100.52863 39879 ft 449 kts 245°
2026-05-04 00:21 41.64421 -100.60032 39866 ft 449 kts 244°
2026-05-04 00:21 41.61215 -100.67216 39872 ft 451 kts 244°
2026-05-04 00:22 41.57997 -100.74408 39875 ft 451 kts 244°
2026-05-04 00:22 41.54775 -100.81591 39872 ft 451 kts 244°
2026-05-04 00:23 41.51569 -100.88722 39867 ft 451 kts 244°
2026-05-04 00:23 41.48336 -100.95895 39868 ft 451 kts 244°
2026-05-04 00:24 41.45100 -101.03059 39857 ft 451 kts 244°
2026-05-04 00:24 41.41865 -101.10202 39867 ft 449 kts 244°
2026-05-04 00:25 41.38637 -101.17312 39867 ft 448 kts 244°
2026-05-04 00:25 41.35409 -101.24411 39863 ft 448 kts 244°
2026-05-04 00:26 41.32175 -101.31503 39849 ft 448 kts 244°
2026-05-04 00:26 41.28931 -101.38602 39873 ft 449 kts 244°
2026-05-04 00:27 41.25683 -101.45692 39863 ft 449 kts 243°
2026-05-04 00:27 41.22424 -101.52789 39885 ft 450 kts 243°
2026-05-04 00:28 41.19186 -101.59823 39883 ft 450 kts 243°
2026-05-04 00:28 41.15927 -101.66887 39897 ft 447 kts 243°
2026-05-04 00:29 41.12674 -101.73921 39896 ft 447 kts 243°
2026-05-04 00:29 41.09419 -101.80945 39897 ft 447 kts 243°
2026-05-04 00:30 41.06158 -101.87966 39895 ft 447 kts 243°
2026-05-04 00:30 41.02890 -101.94985 39887 ft 448 kts 243°
2026-05-04 00:31 40.99618 -102.01995 39873 ft 448 kts 243°
2026-05-04 00:31 40.96340 -102.09002 39860 ft 448 kts 243°
2026-05-04 00:32 40.93079 -102.15958 39852 ft 448 kts 243°
2026-05-04 00:32 40.89793 -102.22951 39833 ft 447 kts 243°
2026-05-04 00:33 40.84868 -102.33402 39843 ft 447 kts 243°
2026-05-04 00:34 40.81580 -102.40359 39842 ft 447 kts 243°
2026-05-04 00:34 40.78289 -102.47308 39842 ft 446 kts 243°
2026-05-04 00:35 40.74992 -102.54253 39837 ft 447 kts 243°
2026-05-04 00:35 40.71693 -102.61188 39840 ft 447 kts 243°
2026-05-04 00:36 40.68386 -102.68124 39837 ft 447 kts 243°
2026-05-04 00:36 40.65076 -102.75049 39837 ft 447 kts 243°
2026-05-04 00:37 40.61787 -102.81915 39828 ft 446 kts 243°
2026-05-04 00:37 40.58480 -102.88802 39835 ft 445 kts 243°
2026-05-04 00:38 40.55172 -102.95678 39830 ft 445 kts 243°
2026-05-04 00:38 40.51861 -103.02546 39829 ft 445 kts 243°
2026-05-04 00:39 40.48544 -103.09410 39832 ft 445 kts 243°
2026-05-04 00:39 40.45224 -103.16266 39864 ft 445 kts 243°
2026-05-04 00:40 40.41903 -103.23107 39866 ft 444 kts 243°
2026-05-04 00:40 40.38582 -103.29935 39880 ft 444 kts 243°
2026-05-04 00:41 40.35259 -103.36752 39862 ft 444 kts 242°
2026-05-04 00:41 40.31932 -103.43560 39878 ft 443 kts 242°
2026-05-04 00:42 40.28607 -103.50349 39855 ft 442 kts 242°
2026-05-04 00:42 40.25280 -103.57132 39874 ft 443 kts 242°
2026-05-04 00:43 40.21963 -103.63877 39883 ft 443 kts 242°
2026-05-04 00:43 40.18598 -103.70703 39883 ft 443 kts 242°
2026-05-04 00:44 40.15254 -103.77473 39878 ft 443 kts 242°
2026-05-04 00:44 40.11925 -103.84200 39858 ft 444 kts 242°
2026-05-04 00:45 40.08575 -103.90951 39841 ft 442 kts 242°
2026-05-04 00:45 40.05228 -103.97682 39791 ft 441 kts 242°
2026-05-04 00:46 40.01893 -104.04375 39801 ft 440 kts 242°
2026-05-04 00:46 39.98558 -104.11056 39804 ft 439 kts 242°
2026-05-04 00:47 39.95219 -104.17733 39828 ft 440 kts 242°
2026-05-04 00:47 39.91878 -104.24396 39868 ft 439 kts 242°
2026-05-04 00:48 39.88540 -104.31039 39913 ft 438 kts 242°
2026-05-04 00:48 39.85201 -104.37670 39954 ft 438 kts 242°
2026-05-04 00:49 39.81861 -104.44290 39991 ft 438 kts 242°
2026-05-04 00:49 39.78518 -104.50902 39990 ft 437 kts 242°
2026-05-04 00:50 39.75194 -104.57462 39988 ft 438 kts 241°
2026-05-04 00:50 39.71843 -104.64063 39953 ft 438 kts 241°
2026-05-04 00:51 39.68487 -104.70658 39952 ft 438 kts 241°
2026-05-04 00:51 39.65127 -104.77247 39953 ft 438 kts 241°
2026-05-04 00:52 39.61765 -104.83828 39981 ft 438 kts 241°
2026-05-04 00:52 39.58399 -104.90402 39981 ft 438 kts 241°
2026-05-04 00:53 39.55029 -104.96971 39978 ft 437 kts 241°
2026-05-04 00:53 39.53349 -105.00241 39834 ft 436 kts 241°
2026-05-04 00:53 39.51666 -105.03511 39835 ft 436 kts 241°
2026-05-04 00:54 39.48305 -105.10037 39819 ft 436 kts 241°
2026-05-04 00:54 39.44936 -105.16556 39847 ft 435 kts 241°
2026-05-04 00:55 39.41569 -105.23071 39863 ft 435 kts 242°
2026-05-04 00:55 39.38199 -105.29573 39853 ft 436 kts 241°
2026-05-04 00:56 39.35395 -105.34975 39850 ft 435 kts 241°
2026-05-04 00:56 39.31466 -105.42525 39865 ft 434 kts 241°
2026-05-04 00:57 39.28090 -105.49001 39879 ft 435 kts 241°
2026-05-04 00:57 39.25255 -105.54428 39889 ft 435 kts 241°
2026-05-04 00:58 39.21869 -105.60895 39875 ft 435 kts 241°
2026-05-04 00:58 39.18481 -105.67351 39863 ft 434 kts 241°
2026-05-04 00:59 39.15126 -105.73730 39884 ft 431 kts 241°
2026-05-04 00:59 39.11740 -105.80162 39854 ft 431 kts 241°
2026-05-04 01:00 39.08397 -105.86499 39861 ft 431 kts 241°
2026-05-04 01:00 39.05030 -105.92873 39863 ft 431 kts 241°
2026-05-04 01:01 39.01657 -105.99238 39977 ft 431 kts 241°
2026-05-04 01:01 38.98287 -106.05585 40011 ft 429 kts 241°
2026-05-04 01:02 38.94917 -106.11916 40063 ft 428 kts 240°
2026-05-04 01:02 38.91549 -106.18234 40073 ft 429 kts 240°
2026-05-04 01:03 38.88178 -106.24550 40043 ft 429 kts 241°
2026-05-04 01:03 38.84815 -106.30840 40058 ft 426 kts 241°
2026-05-04 01:04 38.81457 -106.37095 40043 ft 425 kts 240°
2026-05-04 01:04 38.78108 -106.43323 40017 ft 423 kts 241°
2026-05-04 01:05 38.74769 -106.49532 40005 ft 423 kts 241°
2026-05-04 01:05 38.71434 -106.55728 39992 ft 422 kts 240°
2026-05-04 01:06 38.68099 -106.61920 39994 ft 423 kts 241°
2026-05-04 01:06 38.64780 -106.68072 40008 ft 423 kts 240°
2026-05-04 01:07 38.61420 -106.74251 40001 ft 423 kts 240°
2026-05-04 01:07 38.58065 -106.80418 39991 ft 422 kts 240°
2026-05-04 01:08 38.54721 -106.86567 40016 ft 421 kts 241°
2026-05-04 01:08 38.51371 -106.92697 40104 ft 420 kts 241°
2026-05-04 01:09 38.48025 -106.98817 40107 ft 420 kts 241°
2026-05-04 01:09 38.44684 -107.04929 40088 ft 420 kts 241°
2026-05-04 01:10 38.41443 -107.11111 40077 ft 419 kts 242°
2026-05-04 01:10 38.38286 -107.17285 40056 ft 417 kts 242°
2026-05-04 01:11 38.35104 -107.23481 40045 ft 418 kts 242°
2026-05-04 01:11 38.31898 -107.29649 40022 ft 417 kts 242°
2026-05-04 01:12 38.28980 -107.35243 40007 ft 418 kts 242°
2026-05-04 01:12 38.25766 -107.41396 40012 ft 417 kts 242°
2026-05-04 01:13 38.22563 -107.47513 40004 ft 414 kts 242°
2026-05-04 01:13 38.19364 -107.53636 39994 ft 416 kts 242°
2026-05-04 01:14 38.16155 -107.59756 40005 ft 415 kts 242°
2026-05-04 01:14 38.12954 -107.65834 40009 ft 413 kts 242°
2026-05-04 01:15 38.09759 -107.71898 40012 ft 413 kts 242°
2026-05-04 01:15 38.06561 -107.77958 39991 ft 413 kts 242°
2026-05-04 01:16 38.03362 -107.83996 40008 ft 413 kts 242°
2026-05-04 01:16 38.00155 -107.90028 40009 ft 414 kts 242°
2026-05-04 01:17 37.96949 -107.96071 39989 ft 413 kts 242°
2026-05-04 01:17 37.95347 -107.99092 40194 ft 412 kts 242°
2026-05-04 01:17 37.93740 -108.02108 40196 ft 413 kts 242°
2026-05-04 01:18 37.90533 -108.08129 40157 ft 413 kts 242°
2026-05-04 01:18 37.87317 -108.14159 40114 ft 412 kts 242°
2026-05-04 01:19 37.84129 -108.20118 40056 ft 411 kts 242°
2026-05-04 01:19 37.80922 -108.26112 40015 ft 411 kts 242°
2026-05-04 01:20 37.77714 -108.32091 39973 ft 411 kts 242°
2026-05-04 01:20 37.74502 -108.38065 39982 ft 411 kts 242°
2026-05-04 01:21 37.71290 -108.44023 39966 ft 410 kts 242°
2026-05-04 01:21 37.68079 -108.49972 39964 ft 410 kts 242°
2026-05-04 01:22 37.64866 -108.55916 39964 ft 410 kts 242°
2026-05-04 01:22 37.61651 -108.61842 39949 ft 409 kts 243°
2026-05-04 01:23 37.58456 -108.67743 39977 ft 406 kts 243°
2026-05-04 01:23 37.55272 -108.73607 39964 ft 405 kts 243°
2026-05-04 01:24 37.52082 -108.79466 39931 ft 405 kts 242°
2026-05-04 01:24 37.48901 -108.85299 39904 ft 403 kts 242°
2026-05-04 01:25 37.45730 -108.91108 39909 ft 402 kts 242°
2026-05-04 01:25 37.42555 -108.96909 39910 ft 403 kts 242°
2026-05-04 01:26 37.39375 -109.02704 39892 ft 403 kts 242°
2026-05-04 01:26 37.36212 -109.08461 39883 ft 403 kts 242°
2026-05-04 01:27 37.33008 -109.14287 39869 ft 402 kts 242°
2026-05-04 01:27 37.29829 -109.20054 39834 ft 401 kts 242°
2026-05-04 01:28 37.26658 -109.25796 39861 ft 400 kts 242°
2026-05-04 01:28 37.23513 -109.31486 39846 ft 399 kts 242°
2026-05-04 01:29 37.20346 -109.37203 39867 ft 399 kts 242°
2026-05-04 01:29 37.17174 -109.42921 39844 ft 399 kts 242°
2026-05-04 01:30 37.13999 -109.48636 39856 ft 399 kts 241°
2026-05-04 01:30 37.10826 -109.54334 39851 ft 399 kts 241°
2026-05-04 01:31 37.07650 -109.60028 39855 ft 399 kts 241°
2026-05-04 01:31 37.04470 -109.65718 39854 ft 399 kts 241°
2026-05-04 01:32 37.01290 -109.71402 39847 ft 399 kts 241°
2026-05-04 01:32 36.98101 -109.77092 39847 ft 399 kts 241°
2026-05-04 01:33 36.94918 -109.82764 39852 ft 399 kts 241°
2026-05-04 01:33 36.91725 -109.88440 39851 ft 399 kts 241°
2026-05-04 01:34 36.88528 -109.94115 39849 ft 399 kts 241°
2026-05-04 01:34 36.85330 -109.99780 39852 ft 399 kts 241°
2026-05-04 01:35 36.82127 -110.05442 39850 ft 399 kts 241°
2026-05-04 01:35 36.78924 -110.11100 39859 ft 399 kts 241°
2026-05-04 01:36 36.75716 -110.16759 39856 ft 400 kts 240°
2026-05-04 01:36 36.72503 -110.22421 39867 ft 401 kts 240°
2026-05-04 01:37 36.69301 -110.28045 39873 ft 401 kts 240°
2026-05-04 01:37 36.66074 -110.33701 39873 ft 400 kts 240°
2026-05-04 01:38 36.62847 -110.39354 39878 ft 401 kts 240°
2026-05-04 01:38 36.59616 -110.45004 39877 ft 401 kts 240°
2026-05-04 01:39 36.56378 -110.50654 39876 ft 402 kts 240°
2026-05-04 01:39 36.53132 -110.56312 39875 ft 402 kts 240°
2026-05-04 01:40 36.49887 -110.61962 39867 ft 402 kts 240°
2026-05-04 01:40 36.46633 -110.67611 39867 ft 402 kts 240°
2026-05-04 01:41 36.43375 -110.73255 39864 ft 402 kts 240°
2026-05-04 01:41 36.40116 -110.78896 39853 ft 402 kts 240°
2026-05-04 01:42 36.36855 -110.84533 39854 ft 403 kts 239°
2026-05-04 01:42 36.33578 -110.90186 39847 ft 404 kts 239°
2026-05-04 01:43 36.30295 -110.95839 39848 ft 404 kts 239°
2026-05-04 01:43 36.27402 -111.00815 39826 ft 405 kts 239°
2026-05-04 01:44 36.24117 -111.06455 39831 ft 406 kts 239°
2026-05-04 01:44 36.20808 -111.12126 39832 ft 406 kts 239°
2026-05-04 01:45 36.17495 -111.17797 39824 ft 407 kts 239°
2026-05-04 01:45 36.12134 -111.25988 39815 ft 416 kts 228°
2026-05-04 01:46 36.07160 -111.29895 39807 ft 432 kts 214°
2026-05-04 01:46 36.01717 -111.33080 39804 ft 433 kts 214°
2026-05-04 01:47 35.96263 -111.36255 39804 ft 434 kts 214°
2026-05-04 01:47 35.90810 -111.39433 39796 ft 434 kts 214°
2026-05-04 01:48 35.86276 -111.42076 39809 ft 434 kts 214°
2026-05-04 01:48 35.79933 -111.45768 39817 ft 434 kts 214°
2026-05-04 01:49 35.74471 -111.48942 39824 ft 434 kts 214°
2026-05-04 01:49 35.69011 -111.52111 39829 ft 434 kts 214°
2026-05-04 01:50 35.64432 -111.54765 39856 ft 434 kts 214°
2026-05-04 01:50 35.58968 -111.57927 39867 ft 434 kts 214°
2026-05-04 01:51 35.53506 -111.61086 39869 ft 434 kts 214°
2026-05-04 01:51 35.48043 -111.64237 39639 ft 433 kts 213°
2026-05-04 01:52 35.45318 -111.65805 39381 ft 433 kts 214°
2026-05-04 01:52 35.42618 -111.67360 39147 ft 435 kts 214°
2026-05-04 01:52 35.39880 -111.68936 38925 ft 435 kts 214°
2026-05-04 01:52 35.37103 -111.70536 38685 ft 436 kts 214°
2026-05-04 01:53 35.34396 -111.72094 38449 ft 436 kts 214°
2026-05-04 01:53 35.31612 -111.73692 38161 ft 436 kts 214°
2026-05-04 01:53 35.28897 -111.75249 37903 ft 437 kts 214°
2026-05-04 01:53 35.26138 -111.76831 37637 ft 438 kts 214°
2026-05-04 01:54 35.23372 -111.78416 37373 ft 440 kts 214°
2026-05-04 01:54 35.20598 -111.80003 37101 ft 440 kts 214°
2026-05-04 01:54 35.17827 -111.81585 36834 ft 438 kts 215°
2026-05-04 01:54 35.15071 -111.83159 36720 ft 437 kts 215°
2026-05-04 01:55 35.12317 -111.84731 36286 ft 435 kts 215°
2026-05-04 01:55 35.09578 -111.86294 35580 ft 435 kts 214°
2026-05-04 01:55 35.06839 -111.87858 34803 ft 436 kts 214°
2026-05-04 01:55 35.04075 -111.89437 33953 ft 440 kts 214°
2026-05-04 01:56 35.01291 -111.91025 32930 ft 444 kts 214°
2026-05-04 01:56 34.98482 -111.92625 32034 ft 446 kts 213°
2026-05-04 01:56 34.95661 -111.94229 31099 ft 449 kts 213°
2026-05-04 01:56 34.92826 -111.95822 30425 ft 447 kts 213°
2026-05-04 01:57 34.90022 -111.97412 29779 ft 443 kts 213°
2026-05-04 01:57 34.87244 -111.98990 29102 ft 439 kts 212°
2026-05-04 01:57 34.84491 -112.00552 28481 ft 434 kts 212°
2026-05-04 01:57 34.81764 -112.02098 27842 ft 431 kts 212°
2026-05-04 01:58 34.79060 -112.03629 27222 ft 427 kts 212°
2026-05-04 01:58 34.76379 -112.05147 26596 ft 423 kts 212°
2026-05-04 01:58 34.73725 -112.06647 25979 ft 419 kts 211°
2026-05-04 01:58 34.71089 -112.08134 25359 ft 415 kts 211°
2026-05-04 01:59 34.68478 -112.09586 24768 ft 410 kts 211°
2026-05-04 01:59 34.65904 -112.11021 24178 ft 404 kts 211°
2026-05-04 01:59 34.63362 -112.12458 23609 ft 402 kts 211°
2026-05-04 01:59 34.60836 -112.13892 22950 ft 400 kts 211°
2026-05-04 02:00 34.58367 -112.15285 22697 ft 377 kts 211°
2026-05-04 02:00 34.56088 -112.16560 22595 ft 345 kts 211°
2026-05-04 02:00 34.53970 -112.17749 22484 ft 328 kts 211°
2026-05-04 02:00 34.51938 -112.18897 22374 ft 316 kts 211°
2026-05-04 02:01 34.49959 -112.20014 22253 ft 314 kts 212°
2026-05-04 02:01 34.47969 -112.21144 21925 ft 317 kts 211°
2026-05-04 02:01 34.45926 -112.22156 21444 ft 321 kts 203°
2026-05-04 02:01 34.43696 -112.22575 20928 ft 330 kts 187°
2026-05-04 02:02 34.41398 -112.22245 20501 ft 335 kts 176°
2026-05-04 02:02 34.39118 -112.21652 20062 ft 335 kts 175°
2026-05-04 02:02 34.36872 -112.21048 19645 ft 339 kts 175°
2026-05-04 02:02 34.34487 -112.20421 19395 ft 351 kts 175°
2026-05-04 02:03 34.32138 -112.19804 19093 ft 349 kts 174°
2026-05-04 02:03 34.29788 -112.19185 18430 ft 343 kts 174°
2026-05-04 02:03 34.27445 -112.18572 17831 ft 340 kts 174°
2026-05-04 02:03 34.25175 -112.17984 17410 ft 335 kts 174°
2026-05-04 02:04 34.22927 -112.17399 17113 ft 328 kts 174°
2026-05-04 02:04 34.20703 -112.16820 16720 ft 325 kts 173°
2026-05-04 02:04 34.18502 -112.16253 16305 ft 323 kts 173°
2026-05-04 02:04 34.16310 -112.15688 15860 ft 321 kts 173°
2026-05-04 02:05 34.14127 -112.15128 15431 ft 320 kts 172°
2026-05-04 02:05 34.11960 -112.14574 15146 ft 314 kts 172°
2026-05-04 02:05 34.09875 -112.14033 15018 ft 295 kts 172°
2026-05-04 02:05 34.07920 -112.13413 14790 ft 289 kts 167°
2026-05-04 02:06 34.06016 -112.12664 14479 ft 287 kts 165°
2026-05-04 02:06 34.04131 -112.11895 14161 ft 285 kts 165°
2026-05-04 02:06 34.02257 -112.11127 13838 ft 283 kts 165°
2026-05-04 02:06 34.00399 -112.10368 13507 ft 281 kts 164°
2026-05-04 02:07 33.98553 -112.09615 13158 ft 278 kts 164°
2026-05-04 02:07 33.96728 -112.08870 12846 ft 275 kts 164°
2026-05-04 02:07 33.94929 -112.08138 12531 ft 272 kts 164°
2026-05-04 02:07 33.93143 -112.07412 12213 ft 270 kts 164°
2026-05-04 02:08 33.91373 -112.06693 11904 ft 267 kts 164°
2026-05-04 02:08 33.89623 -112.05983 11594 ft 265 kts 164°
2026-05-04 02:08 33.87885 -112.05278 11296 ft 262 kts 164°
2026-05-04 02:08 33.86161 -112.04586 10982 ft 260 kts 164°
2026-05-04 02:09 33.84449 -112.03890 10693 ft 259 kts 164°
2026-05-04 02:09 33.82746 -112.03196 10394 ft 258 kts 165°
2026-05-04 02:09 33.81076 -112.02517 10086 ft 256 kts 164°
2026-05-04 02:09 33.79381 -112.01830 9820 ft 264 kts 164°
2026-05-04 02:10 33.77594 -112.01111 9730 ft 274 kts 164°
2026-05-04 02:10 33.75795 -112.00381 9290 ft 272 kts 164°
2026-05-04 02:10 33.73998 -111.99655 8941 ft 272 kts 165°
2026-05-04 02:10 33.72199 -111.98932 8767 ft 273 kts 164°
2026-05-04 02:11 33.70396 -111.98203 8609 ft 274 kts 163°
2026-05-04 02:11 33.68605 -111.97474 8500 ft 266 kts 164°
2026-05-04 02:11 33.66917 -111.96787 8339 ft 250 kts 164°
2026-05-04 02:11 33.65267 -111.96121 8187 ft 250 kts 165°
2026-05-04 02:12 33.63622 -111.95463 8018 ft 249 kts 165°
2026-05-04 02:12 33.61978 -111.94799 7798 ft 249 kts 164°
2026-05-04 02:12 33.60345 -111.94136 7461 ft 247 kts 165°
2026-05-04 02:12 33.58718 -111.93476 7087 ft 246 kts 165°
2026-05-04 02:13 33.57089 -111.92819 6677 ft 248 kts 165°
2026-05-04 02:13 33.55482 -111.92168 6488 ft 239 kts 165°
2026-05-04 02:13 33.54003 -111.91357 6329 ft 234 kts 150°
2026-05-04 02:13 33.52955 -111.89851 6007 ft 244 kts 117°
2026-05-04 02:14 33.52665 -111.87823 5677 ft 250 kts 96°
2026-05-04 02:14 33.52656 -111.85737 5337 ft 250 kts 93°
2026-05-04 02:14 33.52682 -111.83654 4991 ft 250 kts 92°
2026-05-04 02:14 33.52753 -111.81574 4694 ft 250 kts 92°
2026-05-04 02:15 33.52822 -111.79498 4363 ft 249 kts 92°
2026-05-04 02:15 33.52881 -111.77423 4120 ft 248 kts 93°
2026-05-04 02:15 33.52949 -111.75352 4044 ft 250 kts 89°
2026-05-04 02:15 33.53055 -111.73278 4030 ft 249 kts 89°
2026-05-04 02:16 33.53167 -111.71219 3988 ft 248 kts 91°
2026-05-04 02:16 33.52954 -111.69217 4031 ft 238 kts 120°
2026-05-04 02:16 33.52017 -111.67699 4026 ft 221 kts 152°
2026-05-04 02:16 33.50658 -111.67010 4023 ft 210 kts 174°
2026-05-04 02:17 33.49205 -111.66750 4026 ft 212 kts 178°
2026-05-04 02:17 33.47732 -111.66574 4022 ft 212 kts 180°
2026-05-04 02:17 33.46317 -111.66845 4033 ft 205 kts 208°
2026-05-04 02:17 33.45279 -111.67962 4028 ft 202 kts 233°
2026-05-04 02:18 33.44558 -111.69415 4021 ft 205 kts 240°
2026-05-04 02:18 33.44122 -111.71057 4029 ft 209 kts 257°
2026-05-04 02:18 33.44006 -111.72807 4025 ft 211 kts 265°
2026-05-04 02:18 33.44008 -111.74575 4026 ft 214 kts 266°
2026-05-04 02:19 33.44010 -111.76331 4030 ft 214 kts 266°
2026-05-04 02:19 33.44021 -111.78113 4024 ft 214 kts 266°
2026-05-04 02:19 33.44045 -111.79884 4019 ft 211 kts 266°
2026-05-04 02:19 33.44064 -111.81641 3908 ft 211 kts 266°
2026-05-04 02:20 33.44071 -111.83381 3644 ft 206 kts 265°
2026-05-04 02:20 33.44070 -111.85022 3379 ft 189 kts 265°
2026-05-04 02:20 33.44070 -111.86582 3129 ft 183 kts 265°
2026-05-04 02:20 33.44074 -111.88021 2903 ft 162 kts 265°
2026-05-04 02:21 33.44077 -111.89299 2700 ft 147 kts 264°
2026-05-04 02:21 33.44076 -111.90482 2500 ft 138 kts 265°
2026-05-04 02:21 33.44076 -111.91615 2331 ft 132 kts 266°
2026-05-04 02:21 33.44078 -111.92693 2174 ft 128 kts 264°
2026-05-04 02:22 33.44078 -111.93756 1997 ft 127 kts 265°
2026-05-04 02:22 33.44085 -111.94806 1840 ft 126 kts 267°
2026-05-04 02:22 33.44082 -111.95839 1690 ft 123 kts 270°
2026-05-04 02:22 33.44086 -111.96857 1547 ft 126 kts 270°
2026-05-04 02:23 33.44086 -111.97947 1409 ft 135 kts 269°
2026-05-04 02:23 33.44083 -111.99050 1199 ft 129 kts 269°
2026-05-04 02:23 33.44083 -112.00083 1139 ft 114 kts 270°
2026-05-04 02:23 33.44084 -112.00736 1136 ft 36 kts 270°
2026-05-04 02:24 33.44081 -112.00905 1139 ft 14 kts 265°
2026-05-04 02:24 33.44064 -112.01030 1141 ft 18 kts 247°
2026-05-04 02:24 33.44002 -112.01071 1138 ft 11 kts 161°
2026-05-04 02:24 33.43981 -112.01031 1137 ft 5 kts 104°
2026-05-04 02:25 33.43974 -112.00968 1135 ft 10 kts 94°
2026-05-04 02:25 33.43973 -112.00921 1135 ft 1 kts 88°
2026-05-04 02:25 33.43974 -112.00889 1135 ft 7 kts 88°
2026-05-04 02:25 33.43975 -112.00812 1135 ft 12 kts 90°
2026-05-04 02:26 33.43974 -112.00705 1135 ft 14 kts 90°
2026-05-04 02:26 33.43974 -112.00572 1135 ft 16 kts 90°
2026-05-04 02:26 33.43974 -112.00436 1135 ft 16 kts 90°
2026-05-04 02:26 33.43974 -112.00322 1136 ft 14 kts 90°
2026-05-04 02:27 33.43973 -112.00189 1137 ft 16 kts 90°
2026-05-04 02:27 33.43973 -112.00041 1136 ft 20 kts 90°
2026-05-04 02:27 33.43973 -111.99885 1136 ft 18 kts 90°
2026-05-04 02:27 33.43973 -111.99737 1137 ft 18 kts 90°
2026-05-04 02:28 33.43973 -111.99574 1137 ft 20 kts 90°
2026-05-04 02:28 33.43973 -111.99416 1137 ft 19 kts 90°
2026-05-04 02:28 33.43973 -111.99278 1135 ft 11 kts 90°
2026-05-04 02:28 33.43921 -111.99238 1137 ft 10 kts 206°
2026-05-04 02:29 33.43905 -111.99316 1133 ft 11 kts 269°
2026-05-04 02:29 33.43876 -111.99390 1136 ft 9 kts 206°
2026-05-04 02:29 33.43845 -111.99406 1135 ft 2 kts 202°
2026-05-04 02:29 33.43843 -111.99407 1136 ft 0 kts 202°